Regional Weather Roundup
Issued by NWS

Home | Current Version | Previous Version | Graphics & Text | Print | Product List | Glossary On
Versions: 1 2 3 4 5 6 7 8 9 10 11 12 13 14 15 16 17 18 19 20 21 22 23 24 25 26 27 28 29 30 31 32 33 34 35 36 37 38 39 40 41 42 43 44 45 46 47 48 49 50
000
ASUS43 KIND 010009
RWRIN

WEATHER ROUNDUP FOR INDIANA
NATIONAL WEATHER SERVICE INDIANAPOLIS IN
800 PM EDT THU JUL 31 2014

NOTE: "FAIR" INDICATES FEW OR NO CLOUDS BELOW 12,000 FEET WITH NO
SIGNIFICANT WEATHER AND/OR OBSTRUCTIONS TO VISIBILITY.

* - STATION DOES NOT REPORT WEATHER SUCH AS PRECIPITATION OR FOG.

+ - STATION NOT QUALITY CONTROLLED BY THE NATIONAL WEATHER SERVICE.
    USE DATA WITH CAUTION...ESPECIALLY DEWPOINT AND RELATIVE
    HUMIDITY OBSERVATIONS.

INZ001>003-010>013-019-020-010100-
NORTHWEST INDIANA

CITY           SKY/WX    TMP DP  RH WIND       PRES   REMARKS
GARY /AIRPORT/ MOSUNNY   79  59  50 SW12      30.03S
KNOX *+        MOSUNNY   70  62  76 CALM      30.03F
LA PORTE +     PTSUNNY   68  63  83 CALM      30.05R
6HR MIN TEMP:  66; 6HR MAX TEMP:  81; 6HR PCP:  0.35;

MICHIGAN CITY+ CLOUDY    73  61  64 S5        30.03S
MONTICELLO +   SUNNY     75  64  68 CALM      30.05S
RENSSELAER +   SUNNY     73  64  73 SW5       30.06R
VALPARAISO     SUNNY     77  60  55 SW12      30.05R
6HR MIN TEMP:  77; 6HR MAX TEMP:  83;


$$

LMZ046-743>745-010100-
SOUTHERN LAKE MICHIGAN

STATION/POSITION TIME  TEMP WIND        PRES
                       AIR  DIR/SP/G
                 (UTC) (F)  (DEG/KT/KT) (MB)
MICHIGAN CITY    2300   75  210/  6/  7   N/A

$$

INZ004-005-014>016-021>024-010100-
NORTH CENTRAL INDIANA

CITY           SKY/WX    TMP DP  RH WIND       PRES   REMARKS
ELKHART        PTSUNNY   75  55  50 W7        30.05R
GOSHEN         CLOUDY    75  59  57 SW8       30.05R
6HR MIN TEMP:  75; 6HR MAX TEMP:  83;

LOGANSPORT +   SUNNY     73  63  68 CALM      30.07R
PERU/GRISSOM   SUNNY     76  65  69 W7        30.06S
6HR MIN TEMP:  76; 6HR MAX TEMP:  81;

ROCHESTER +    MOSUNNY   79  59  50 SW7       30.06S
SOUTH BEND     MOSUNNY   74  59  59 SW7       30.04F
6HR MIN TEMP:  74; 6HR MAX TEMP:  84;

WARSAW +       CLOUDY    70  64  83 SW3       30.06S

$$

INZ006>009-017-018-025>027-010100-
NORTHEAST INDIANA

CITY           SKY/WX    TMP DP  RH WIND       PRES   REMARKS
ANGOLA *+      CLEAR     79  73  83 CALM      30.05R
AUBURN +       PTCLDY    72  57  60 SW8       30.06S
FORT WAYNE     PTCLDY    77  60  55 W7        30.06R
6HR MIN TEMP:  77; 6HR MAX TEMP:  81;

HUNTINGTON +   PTCLDY    76  60  59 SW5       30.05S
6HR MIN TEMP:  76; 6HR MAX TEMP:  81;


$$

INZ028-029-035-036-043>045-051>053-010100-
WEST CENTRAL INDIANA

CITY           SKY/WX    TMP DP  RH WIND       PRES   REMARKS
GREENCASTLE +  PTSUNNY   75  63  64 CALM      30.08S
LAFAYETTE      SUNNY     76  64  66 CALM      30.06R
6HR MIN TEMP:  76; 6HR MAX TEMP:  80;

TERRE HAUTE    CLOUDY    79  65  62 CALM      30.06S
6HR MIN TEMP:  79; 6HR MAX TEMP:  83;


$$

INZ030>032-037>040-046>048-054>057-064-065-010100-
CENTRAL INDIANA

CITY           SKY/WX    TMP DP  RH WIND       PRES   REMARKS
CP ATTERBURY + CLEAR     77  59  53 CALM      30.08S
COLUMBUS       CLEAR     77  61  57 CALM      30.07S
INDIANAPOLIS   PTCLDY    76  59  55 W7        30.07S
6HR MIN TEMP:  76; 6HR MAX TEMP:  80;

-EAGLE CREEK   CLEAR     77  59  53 NW3       30.07R
6HR MIN TEMP:  77; 6HR MAX TEMP:  80;

KOKOMO *+      CLEAR     75  61  60 W5        30.07R
MARION +       CLEAR     74  59  60 SW5       30.08S
MT COMFORT *+  CLEAR     77  64  65 NW5       30.08R
SHELBYVILLE    CLEAR     77  63  61 SW5       30.07S
6HR MIN TEMP:  77; 6HR MAX TEMP:  82;

ZIONSVILLE +   CLEAR     76  58  53 W3        30.08S
6HR MIN TEMP:  76; 6HR MAX TEMP:  81;


$$

INZ033-034-041-042-049-050-058-059-010100-
EAST CENTRAL INDIANA

CITY           SKY/WX    TMP DP  RH WIND       PRES   REMARKS
MUNCIE         CLEAR     75  59  57 W5        30.07S
6HR MIN TEMP:  75; 6HR MAX TEMP:  80;


$$

INZ060-061-067>069-081>083-085>088-010100-
SOUTHWEST INDIANA

CITY           SKY/WX    TMP DP  RH WIND       PRES   REMARKS
EVANSVILLE     MOSUNNY   81  61  50 NW5       30.06S
6HR MIN TEMP:  80; 6HR MAX TEMP:  86;

WASHINGTON +   MOSUNNY   78  64  62 CALM      30.05S
6HR MIN TEMP:  77; 6HR MAX TEMP:  81;


$$

INZ062-063-066-070>080-084-089>092-010100-
SOUTH CENTRAL AND SOUTHEAST INDIANA

CITY           SKY/WX    TMP DP  RH WIND       PRES   REMARKS
BLOOMINGTON    CLEAR     75  66  73 CALM      30.07S
6HR MIN TEMP:  75; 6HR MAX TEMP:  81;

NORTH VERNON + CLEAR     77  63  61 CALM      30.08
SEYMOUR +      CLEAR     77  45  31 W3        30.06S

$$




USA.gov is the U.S. government's official web portal to all federal, state and local government web resources and services.